SCP
0 0 0 0 0 0 0 0 0 0 0 0 0 0 0 0 0 0 0 0 0 0 0 0 0 0 0 0 0 0 0 0 0 0 0 0 0 0 0 0 0 0 0 0 0 0 0
0 0 0 0 0 0 0 0 0 0 0 0 -0 0 0 0 0 0 0 0 0 0 0 0 0 0 0 0 0 0 0 0 0 0 0 0 0 0 0 0 0 0 0 0 0 0 0
0 0 0 0 0 0 0 0 0 0 0 0 0 0 0 -0 -0 -0 -0 -0 -0 0 0 0 0 0 0 0 0 0 0 0 0 0 0 0 0 0 0 0 0 0 0 0 0 0 0
0 0 0 0 0 0 0 0 0 0 0 0 0 0 0 -0 -0 -0 -0 -0 -0 0 0 -0 -0 0 0 0 0 -0 0 0 0 0 0 0 0 0 0 0 0 0 0 0 0 0 0
0 0 0 0 0 0 0 0 0 0 0 0 0 0 0 -0 -0 -0 -0 -0 -0 -0 -0 0 0 0 0 0 0 0 0 0 0 0 0 0 0 0 0 0 0 0 0 0 0 0 0
0 0 0 0 0 0 0 0 0 0 0 -0 -0 -0 0 -0 -0 -0 -0 -0 0 -0 0 0 0 0 0 0 0 0 0 0 0 0 0 0 0 0 0 0 0 0 0 0 0 0 0
-0 -0 -0 -0 0 0 0 0 0 0 0 0 0 -0 -0 0 -0 0 0 -0 -0 -0 0 0 0 0 -0 -0 0 0 0 0 0 0 0 0 0 0 0 0 0 0 0 0 0 0 0
-0 -0 -0 -0 -0 -0 0 0 0 0 0 0 0 0 0 -0 -0 0 -0 -0 0 0 0 -0 -0 0 -0 -0 0 0 0 0 0 0 0 0 0 0 0 0 0 0 0 0 0 0 0
-0 -0 -0 -0 -0 0 0 0 0 0 -0 -0 0 0 -0 -0 0 0 -0 -0 0 0 0 0 0 0 -0 -0 -0 -0 0 0 0 0 0 0 0 0 0 0 0 0 0 0 0 0 0
-0 -0 -0 -0 -0 -0 -0 -0 0 -0 -0 -0 -0 -0 -0 0 0 0 0 0 0 0 0 0 0 -0 -0 -0 -0 -0 0 0 0 0 0 0 0 0 0 0 0 0 0 0 0 0 0
-0 -0 -0 -0 -0 -0 -0 -0 -0 -0 -0 -0 -0 -0 0 0 0 0 0 -0 0 0 0 0 0 0 0 0 0 0 -0 0 0 0 0 0 0 0 0 0 0 0 0 0 0 0 0
-0 -0 -0 -0 -0 -0 -0 -0 -0 -0 -0 -0 -0 -0 0 0 0 -0 -0 -0 0 0 0 0 0 0 0 0 0 0 0 0 0 0 0 0 0 0 0 0 0 0 0 0 0 0 0
-0 -0 -0 -0 -0 -0 -0 -0 -0 0 -0 -0 0 0 0 -0 0 -0 0 0 0 0 0 0 0 0 0 0 0 0 0 0 0 0 0 0 0 0 0 0 0 0 0 0 0 0 0
-0 -0 -0 -0 -0 -0 -0 -0 -0 -0 -0 0 0 0 0 0 0 -0 0 0 0 0 0 0 0 0 0 0 0 0 0 0 0 0 0 0 0 0 0 0 0 0 0 0 0 0 0
-0 -0 -0 -0 -0 -0 -0 -0 -0 -0 0 0 0 0 0 0 0 0 0 0 0 0 0 0 0 0 0 0 0 0 0 0 0 0 0 0 0 0 0 0 0 0 0 0 0 0 0
-0 -0 -0 -0 -0 -0 -0 -0 -0 -0 0 0 0 0 0 0 0 0 0 0 0 0 0 0 0 0 0 0 0 0 0 0 0 0 0 0 0 0 0 0 0 0 0 0 0 0 0
-0 -0 -0 -0 -0 -0 -0 -0 -0 -0 0 0 0 0 0 0 0 0 0 0 0 0 0 0 0 0 0 0 0 0 0 0 0 0 0 0 0 0 0 0 0 0 0 0 0 0 0
-0 -0 -0 -0 -0 -0 -0 -0 -0 -0 -0 0 0 0 0 0 0 0 0 0 0 0 0 0 0 0 0 0 0 0 0 0 0 0 0 0 0 0 0 0 0 0 0 0 0 0 0
-0 -0 -0 -0 -0 -0 -0 -0 -0 -0 0 0 0 0 0 0 0 0 0 0 0 0 0 0 0 0 0 0 0 0 0 0 0 0 0 0 0 0 0 0 0 0 0 0 0 0 0
-0 -0 -0 -0 -0 -0 -0 -0 -0 -0 0 0 0 0 0 0 0 0 0 0 0 0 0 0 0 0 0 0 0 0 0 0 0 0 0 0 0 0 0 0 0 0 0 0 0 1 0
-0 -0 -0 -0 -0 -0 -0 -0 -0 -0 -0 0 0 0 0 0 0 0 0 0 0 0 0 0 0 0 0 0 0 0 0 0 0 0 0 0 0 0 0 0 0 0 0 0 0 0 0
-0 -0 -0 -0 -0 -0 -0 -0 -0 -0 -0 0 0 0 0 0 0 0 0 0 0 0 0 0 0 0 0 0 0 0 0 0 0 0 0 0 0 0 0 0 -0 -0 -0 0 0 0 0
-0 -0 -0 -0 -0 -0 -0 -0 -0 -0 0 0 0 0 0 0 0 0 0 0 0 0 0 0 0 0 0 0 0 0 0 0 0 0 0 0 0 0 0 0 0 -0 0 0 0 0 0
-0 -0 -0 -0 -0 -0 -0 -0 -0 -0 0 0 0 0 0 0 0 0 0 0 0 0 0 0 0 0 0 -0 0 0 0 0 0 0 0 -0 0 0 0 0 0 0 0 0 0 0 0
-0 -0 -0 -0 -0 -0 -0 -0 -0 -0 -0 -0 0 0 0 0 0 0 0 0 0 0 0 0 0 0 0 0 0 0 0 0 0 0 0 0 0 0 -0 -0 0 0 0 0 0 0 0
0 -0 -0 -0 -0 -0 -0 -0 -0 -0 -0 0 0 0 0 0 0 0 0 0 0 0 0 0 0 0 0 0 0 0 0 0 0 0 0 0 0 0 0 -0 0 -0 0 -0 -0 0 0
-0 -0 -0 -0 -0 -0 -0 -0 -0 -0 0 0 0 0 0 0 0 0 0 0 0 0 0 0 0 0 0 0 0 0 0 0 0 0 0 0 0 -0 -0 -0 0 0 0 -0 -0 0 0
-0 -0 -0 -0 -0 -0 -0 -0 -0 0 0 0 0 0 0 0 0 0 0 0 0 0 0 0 0 0 0 0 0 0 0 0 0 0 0 0 0 0 0 -0 -0 -0 -0 -0 -0 -0 0
-0 -0 -0 0 -0 -0 -0 0 0 0 0 0 0 0 0 0 0 0 0 0 0 0 0 0 0 0 0 0 0 0 0 0 0 0 0 0 0 0 0 0 0 0 0 -0 -0 0 -0
Wind_Speed_500mb
23 23 24 24 24 25 25 26 27 27 27 27 27 25 23 22 19 18 19 18 18 18 20 20 17 15 16 10 11 13 8 2 8 36 33 23 23 12 12 10 12 10 3 4 5 16 19
25 26 26 26 26 26 26 27 27 27 27 28 28 25 22 20 17 16 18 18 19 20 20 19 17 16 15 9 5 2 7 10 8 24 29 21 13 11 8 6 9 1 7 13 12 20 11
28 29 28 28 28 28 27 27 27 27 27 27 26 24 20 18 17 16 17 19 20 20 18 17 17 17 22 18 6 10 7 9 8 10 15 17 7 4 3 9 11 11 9 11 12 12 7
31 31 31 31 30 29 28 27 26 26 26 26 25 24 20 17 17 17 17 19 18 17 17 17 17 19 12 5 5 12 14 9 10 12 11 8 18 0 2 17 7 7 5 13 8 12 12
34 33 31 30 29 28 27 26 25 25 25 25 26 25 20 16 16 16 17 16 17 19 22 21 18 10 11 6 22 9 14 7 12 9 20 13 17 7 9 8 7 3 9 16 7 18 11
37 35 33 31 28 27 25 24 23 23 23 23 24 24 20 15 14 14 16 15 19 21 13 16 16 7 3 3 29 10 8 22 10 18 12 3 5 5 6 11 13 14 8 10 19 22 18
42 39 36 32 30 28 25 23 22 21 21 21 22 22 17 13 12 14 16 10 18 7 27 19 23 25 40 29 2 4 7 23 13 8 5 3 7 13 13 15 3 12 11 16 20 11 26
50 46 40 35 31 28 25 22 21 20 18 17 18 18 14 11 10 13 21 12 12 15 18 20 12 31 30 31 9 4 16 14 12 10 10 6 14 13 6 11 12 14 13 20 7 16 28
58 53 45 39 34 29 24 22 20 18 16 15 15 15 12 8 8 10 15 22 27 28 7 15 14 10 8 17 11 9 24 13 7 12 12 13 6 17 15 14 16 15 20 18 22 7 15
61 60 54 47 39 32 25 21 17 15 14 13 12 12 7 5 10 5 13 29 27 10 4 17 22 7 7 5 3 7 25 9 4 13 11 14 8 18 16 20 26 19 31 29 26 16 24
57 60 60 57 48 37 29 22 17 14 12 12 11 8 4 5 9 7 16 29 16 6 5 24 20 12 5 3 11 12 18 14 16 14 12 14 12 14 18 29 28 20 5 24 26 32 17
55 58 58 58 57 44 31 25 20 17 16 15 13 11 7 6 6 9 24 26 10 3 9 12 15 17 12 16 13 20 5 3 2 10 12 24 5 10 24 11 28 9 6 7 3 11 18
58 58 59 56 54 52 37 27 23 22 23 24 21 18 13 10 6 16 25 12 2 10 14 19 18 16 14 19 18 19 14 13 9 8 14 17 23 11 18 25 16 16 13 17 17 13 27
64 63 63 59 53 50 44 33 27 28 32 37 37 30 25 19 17 24 17 7 19 13 11 17 14 9 12 23 13 17 18 14 15 11 7 8 12 9 9 14 12 17 18 21 36 28 29
66 67 66 63 59 47 41 36 29 25 31 34 38 41 37 29 27 19 9 14 8 10 18 17 11 11 12 17 18 19 11 19 16 27 11 10 15 10 15 10 5 5 14 10 18 13 20
64 67 67 66 62 55 36 31 26 18 14 12 15 30 43 37 27 22 14 11 6 20 12 5 14 15 16 21 21 20 13 15 20 26 22 8 15 14 7 5 4 7 4 11 8 24 37
59 65 67 66 64 61 46 28 22 19 14 11 8 11 34 27 29 27 9 8 7 31 24 17 12 8 10 13 10 14 7 12 25 33 22 19 11 18 12 13 15 9 15 3 1 6 14
55 61 65 66 64 62 54 37 19 17 11 16 14 8 27 20 16 8 7 7 10 19 29 17 10 11 12 14 11 11 13 11 27 29 19 10 11 21 32 6 5 6 6 6 13 17 8
53 56 61 64 64 61 56 44 28 12 13 13 14 10 33 15 7 6 6 8 14 20 18 15 17 12 12 9 10 12 15 30 22 29 24 11 5 17 23 12 5 9 2 5 6 4 21
51 53 56 58 61 61 59 50 39 16 9 9 9 4 19 39 15 6 4 10 10 17 10 17 14 12 15 12 6 12 15 14 39 29 10 5 8 15 9 17 23 27 6 10 7 9 13
49 49 51 54 57 59 61 56 41 32 4 6 10 8 6 6 16 16 7 7 9 11 14 25 7 18 10 8 16 6 23 33 24 17 15 10 19 29 33 31 6 27 15 16 13 13 13
49 48 49 50 51 55 57 60 52 37 16 12 9 10 18 9 4 9 10 6 12 11 6 5 11 18 11 7 13 33 36 29 11 20 11 6 6 20 41 35 29 26 38 5 16 18 13
51 47 46 47 47 49 51 55 54 47 30 24 24 20 9 9 4 2 3 3 6 12 5 4 15 11 13 17 32 43 35 26 20 9 8 8 10 8 21 17 21 22 9 8 11 8 8
54 50 44 43 43 42 44 46 47 47 46 29 19 11 9 5 3 3 2 2 6 8 6 11 13 8 17 48 10 4 16 9 7 1 4 12 11 4 11 16 14 10 6 13 17 13 12
57 52 45 40 39 39 38 38 38 36 34 33 24 12 8 6 1 2 1 3 3 4 5 7 10 17 40 15 6 6 2 3 6 12 16 6 8 7 8 9 5 8 14 13 9 12 12
59 55 48 41 37 35 35 32 30 30 27 20 25 20 9 13 4 3 2 1 3 6 4 6 17 19 28 12 6 9 10 10 10 23 16 14 12 7 7 7 10 3 16 19 4 4 8
59 55 50 46 39 33 31 30 25 22 21 22 19 14 7 5 9 6 4 2 3 2 3 8 15 12 24 9 9 7 5 8 10 16 19 15 11 12 10 5 2 17 28 10 6 6 8
58 54 50 48 44 35 30 27 25 20 15 13 15 19 8 2 10 11 9 6 7 3 2 6 3 8 4 9 5 4 4 4 7 9 14 9 11 7 6 5 3 30 10 6 3 9 6
59 53 50 49 46 42 33 27 24 20 16 12 10 12 16 7 7 13 18 15 12 8 4 3 2 5 5 2 3 2 6 5 4 7 2 5 4 6 3 4 7 12 5 3 5 6 5
Wind_Direction_500mb
360 353 348 344 340 340 340 338 336 335 334 333 333 333 327 321 316 311 308 309 313 311 306 301 302 311 323 304 265 269 301 340 206 185 182 178 173 159 189 181 161 222 223 160 120 163 181
356 349 345 341 338 337 337 337 336 336 337 338 337 334 328 321 317 316 310 314 316 311 306 302 310 318 310 273 245 344 106 79 113 177 186 191 197 175 129 145 196 64 135 118 131 148 128
350 345 341 337 336 335 334 333 334 334 336 340 339 334 331 327 324 319 319 322 319 315 310 308 310 313 298 282 242 216 89 130 127 169 190 201 146 131 144 134 129 125 131 120 132 149 127
348 343 339 336 333 332 330 329 330 330 332 337 339 338 338 333 326 325 331 327 317 313 309 306 309 312 271 312 329 250 236 188 144 161 170 133 196 274 65 122 88 125 130 209 152 177 156
350 345 339 335 331 329 327 325 324 326 329 333 338 341 340 333 328 333 333 322 319 319 310 302 305 317 280 139 23 25 214 181 184 143 128 109 149 136 132 136 127 76 203 212 197 197 164
356 349 342 337 333 328 326 322 321 322 325 331 335 341 339 334 333 336 340 334 319 310 299 307 289 298 207 164 328 330 179 175 123 146 151 152 101 151 131 187 199 196 216 214 222 191 198
4 356 347 340 333 328 327 323 321 322 325 329 331 338 340 334 343 9 25 10 352 322 305 265 282 273 281 290 318 150 175 189 157 165 160 119 197 201 181 196 158 205 227 240 239 195 202
13 5 357 350 340 332 327 325 324 322 324 326 327 335 339 339 15 74 48 46 12 322 314 328 307 275 273 255 302 194 170 161 171 184 136 173 236 213 158 184 168 176 204 244 263 188 202
19 15 9 4 357 349 338 330 328 328 327 328 328 337 342 357 62 97 29 6 344 326 264 305 328 336 348 180 203 229 177 171 162 176 187 229 234 143 164 167 185 204 212 224 240 145 196
21 20 20 14 7 2 355 349 347 346 342 338 341 346 351 34 117 99 10 347 340 337 324 10 10 43 19 92 187 261 193 174 163 222 180 255 235 217 215 215 207 228 218 226 214 204 233
22 20 18 18 16 10 9 11 12 9 4 2 1 4 23 142 114 53 350 342 335 337 62 336 7 349 353 353 323 24 196 213 202 179 186 228 201 193 218 236 196 237 182 217 219 224 239
21 20 17 17 17 15 15 17 22 26 26 30 38 46 64 99 112 9 345 339 320 262 49 5 342 352 31 22 26 354 3 284 101 179 231 261 216 232 257 229 194 194 197 116 122 233 243
23 21 20 18 18 20 22 24 33 44 53 54 53 57 65 72 55 355 337 326 27 44 336 353 345 358 43 9 17 12 1 32 358 296 253 273 259 260 226 254 218 210 209 257 238 214 253
25 24 23 21 21 22 28 36 48 67 70 68 65 66 64 62 18 351 354 67 59 341 357 330 335 39 52 14 11 0 8 23 43 5 308 314 306 1 8 245 298 211 220 239 263 263 268
24 23 24 25 24 23 27 36 52 73 81 81 72 66 53 32 10 22 77 55 28 333 319 321 311 26 12 12 343 353 31 10 16 9 344 309 278 314 292 299 272 169 226 301 266 254 268
22 22 23 26 26 26 26 29 40 56 66 93 71 48 28 19 32 61 70 95 76 3 317 2 32 24 10 3 5 359 18 15 354 5 344 303 281 279 286 290 159 257 48 242 211 263 260
20 20 20 23 27 26 28 25 26 33 59 98 75 58 14 24 58 60 69 63 49 14 26 23 10 353 358 350 325 342 347 74 17 360 20 345 284 272 287 261 289 247 238 162 16 254 276
16 17 18 19 24 26 23 23 23 33 102 79 64 56 9 39 49 37 51 25 31 4 14 17 32 348 3 347 319 339 5 13 28 5 358 29 296 280 276 235 246 217 259 244 246 232 222
13 15 16 16 20 26 26 24 25 41 118 95 82 53 30 57 80 69 45 49 53 19 24 14 15 5 356 348 325 353 348 332 355 357 344 346 328 315 276 205 195 238 110 264 256 209 229
11 12 14 15 16 21 26 26 26 43 91 130 113 84 39 59 65 70 85 26 11 18 54 11 27 30 354 334 7 313 320 313 331 332 360 276 266 236 264 310 349 302 1 356 273 220 251
11 11 13 14 16 18 22 27 27 28 69 73 66 80 60 27 36 63 70 37 1 7 17 20 41 12 348 300 318 289 317 325 310 352 345 309 277 280 267 241 283 303 342 9 336 326 268
11 12 13 14 16 18 20 24 31 36 45 98 98 125 87 71 49 53 24 41 12 338 315 30 2 332 319 271 308 307 315 310 309 330 325 349 274 321 287 280 210 213 257 310 333 346 307
13 12 13 15 17 19 21 25 30 37 48 78 85 103 105 20 53 65 41 360 1 340 265 311 329 315 308 315 313 302 282 265 267 297 322 328 328 317 288 324 279 235 2 72 92 60 304
14 12 11 13 15 18 21 26 31 38 40 57 71 82 89 79 72 98 92 22 332 330 275 313 340 320 322 314 335 54 68 120 164 242 306 326 319 245 290 323 246 75 53 60 87 45 22
11 11 9 8 11 15 19 22 29 37 43 43 48 59 87 107 119 211 151 8 331 309 248 278 345 317 325 333 1 339 308 321 328 347 5 345 312 302 323 327 75 45 358 336 3 46 3
10 9 8 5 5 8 13 17 21 27 36 40 45 49 90 127 200 192 153 9 11 351 329 297 349 352 5 12 42 26 6 337 327 331 350 357 9 13 345 351 7 318 291 254 327 94 19
10 9 8 6 1 1 4 8 10 18 25 28 31 30 43 106 178 169 180 155 128 95 276 300 331 346 15 13 40 24 352 320 327 319 340 339 358 12 2 4 47 345 329 295 250 112 144
8 8 6 4 2 356 354 357 360 358 6 14 16 26 21 248 206 213 207 181 177 179 341 326 261 27 4 30 3 18 286 349 293 297 323 324 336 347 317 328 346 354 356 24 20 162 208
5 5 5 1 358 355 348 344 346 347 341 334 341 337 355 243 242 238 243 241 241 251 254 261 241 231 208 90 205 220 232 229 283 315 224 288 311 301 264 302 334 326 37 45 152 173 233
Wind_Speed_850mb
23 23 24 24 24 25 25 26 27 27 27 27 27 25 23 22 19 18 19 18 18 18 20 20 17 15 16 10 11 13 8 2 8 36 33 23 23 12 12 10 12 10 3 4 5 16 19
25 26 26 26 26 26 26 27 27 27 27 28 28 25 22 20 17 16 18 18 19 20 20 19 17 16 15 9 5 2 7 10 8 24 29 21 13 11 8 6 9 1 7 13 12 20 11
28 29 28 28 28 28 27 27 27 27 27 27 26 24 20 18 17 16 17 19 20 20 18 17 17 17 22 18 6 10 7 9 8 10 15 17 7 4 3 9 11 11 9 11 12 12 7
31 31 31 31 30 29 28 27 26 26 26 26 25 24 20 17 17 17 17 19 18 17 17 17 17 19 12 5 5 12 14 9 10 12 11 8 18 0 2 17 7 7 5 13 8 12 12
34 33 31 30 29 28 27 26 25 25 25 25 26 25 20 16 16 16 17 16 17 19 22 21 18 10 11 6 22 9 14 7 12 9 20 13 17 7 9 8 7 3 9 16 7 18 11
37 35 33 31 28 27 25 24 23 23 23 23 24 24 20 15 14 14 16 15 19 21 13 16 16 7 3 3 29 10 8 22 10 18 12 3 5 5 6 11 13 14 8 10 19 22 18
42 39 36 32 30 28 25 23 22 21 21 21 22 22 17 13 12 14 16 10 18 7 27 19 23 25 40 29 2 4 7 23 13 8 5 3 7 13 13 15 3 12 11 16 20 11 26
50 46 40 35 31 28 25 22 21 20 18 17 18 18 14 11 10 13 21 12 12 15 18 20 12 31 30 31 9 4 16 14 12 10 10 6 14 13 6 11 12 14 13 20 7 16 28
58 53 45 39 34 29 24 22 20 18 16 15 15 15 12 8 8 10 15 22 27 28 7 15 14 10 8 17 11 9 24 13 7 12 12 13 6 17 15 14 16 15 20 18 22 7 15
61 60 54 47 39 32 25 21 17 15 14 13 12 12 7 5 10 5 13 29 27 10 4 17 22 7 7 5 3 7 25 9 4 13 11 14 8 18 16 20 26 19 31 29 26 16 24
57 60 60 57 48 37 29 22 17 14 12 12 11 8 4 5 9 7 16 29 16 6 5 24 20 12 5 3 11 12 18 14 16 14 12 14 12 14 18 29 28 20 5 24 26 32 17
55 58 58 58 57 44 31 25 20 17 16 15 13 11 7 6 6 9 24 26 10 3 9 12 15 17 12 16 13 20 5 3 2 10 12 24 5 10 24 11 28 9 6 7 3 11 18
58 58 59 56 54 52 37 27 23 22 23 24 21 18 13 10 6 16 25 12 2 10 14 19 18 16 14 19 18 19 14 13 9 8 14 17 23 11 18 25 16 16 13 17 17 13 27
64 63 63 59 53 50 44 33 27 28 32 37 37 30 25 19 17 24 17 7 19 13 11 17 14 9 12 23 13 17 18 14 15 11 7 8 12 9 9 14 12 17 18 21 36 28 29
66 67 66 63 59 47 41 36 29 25 31 34 38 41 37 29 27 19 9 14 8 10 18 17 11 11 12 17 18 19 11 19 16 27 11 10 15 10 15 10 5 5 14 10 18 13 20
64 67 67 66 62 55 36 31 26 18 14 12 15 30 43 37 27 22 14 11 6 20 12 5 14 15 16 21 21 20 13 15 20 26 22 8 15 14 7 5 4 7 4 11 8 24 37
59 65 67 66 64 61 46 28 22 19 14 11 8 11 34 27 29 27 9 8 7 31 24 17 12 8 10 13 10 14 7 12 25 33 22 19 11 18 12 13 15 9 15 3 1 6 14
55 61 65 66 64 62 54 37 19 17 11 16 14 8 27 20 16 8 7 7 10 19 29 17 10 11 12 14 11 11 13 11 27 29 19 10 11 21 32 6 5 6 6 6 13 17 8
53 56 61 64 64 61 56 44 28 12 13 13 14 10 33 15 7 6 6 8 14 20 18 15 17 12 12 9 10 12 15 30 22 29 24 11 5 17 23 12 5 9 2 5 6 4 21
51 53 56 58 61 61 59 50 39 16 9 9 9 4 19 39 15 6 4 10 10 17 10 17 14 12 15 12 6 12 15 14 39 29 10 5 8 15 9 17 23 27 6 10 7 9 13
49 49 51 54 57 59 61 56 41 32 4 6 10 8 6 6 16 16 7 7 9 11 14 25 7 18 10 8 16 6 23 33 24 17 15 10 19 29 33 31 6 27 15 16 13 13 13
49 48 49 50 51 55 57 60 52 37 16 12 9 10 18 9 4 9 10 6 12 11 6 5 11 18 11 7 13 33 36 29 11 20 11 6 6 20 41 35 29 26 38 5 16 18 13
51 47 46 47 47 49 51 55 54 47 30 24 24 20 9 9 4 2 3 3 6 12 5 4 15 11 13 17 32 43 35 26 20 9 8 8 10 8 21 17 21 22 9 8 11 8 8
54 50 44 43 43 42 44 46 47 47 46 29 19 11 9 5 3 3 2 2 6 8 6 11 13 8 17 48 10 4 16 9 7 1 4 12 11 4 11 16 14 10 6 13 17 13 12
57 52 45 40 39 39 38 38 38 36 34 33 24 12 8 6 1 2 1 3 3 4 5 7 10 17 40 15 6 6 2 3 6 12 16 6 8 7 8 9 5 8 14 13 9 12 12
59 55 48 41 37 35 35 32 30 30 27 20 25 20 9 13 4 3 2 1 3 6 4 6 17 19 28 12 6 9 10 10 10 23 16 14 12 7 7 7 10 3 16 19 4 4 8
59 55 50 46 39 33 31 30 25 22 21 22 19 14 7 5 9 6 4 2 3 2 3 8 15 12 24 9 9 7 5 8 10 16 19 15 11 12 10 5 2 17 28 10 6 6 8
58 54 50 48 44 35 30 27 25 20 15 13 15 19 8 2 10 11 9 6 7 3 2 6 3 8 4 9 5 4 4 4 7 9 14 9 11 7 6 5 3 30 10 6 3 9 6
59 53 50 49 46 42 33 27 24 20 16 12 10 12 16 7 7 13 18 15 12 8 4 3 2 5 5 2 3 2 6 5 4 7 2 5 4 6 3 4 7 12 5 3 5 6 5
Wind_Direction_850mb
360 353 348 344 340 340 340 338 336 335 334 333 333 333 327 321 316 311 308 309 313 311 306 301 302 311 323 304 265 269 301 340 206 185 182 178 173 159 189 181 161 222 223 160 120 163 181
356 349 345 341 338 337 337 337 336 336 337 338 337 334 328 321 317 316 310 314 316 311 306 302 310 318 310 273 245 344 106 79 113 177 186 191 197 175 129 145 196 64 135 118 131 148 128
350 345 341 337 336 335 334 333 334 334 336 340 339 334 331 327 324 319 319 322 319 315 310 308 310 313 298 282 242 216 89 130 127 169 190 201 146 131 144 134 129 125 131 120 132 149 127
348 343 339 336 333 332 330 329 330 330 332 337 339 338 338 333 326 325 331 327 317 313 309 306 309 312 271 312 329 250 236 188 144 161 170 133 196 274 65 122 88 125 130 209 152 177 156
350 345 339 335 331 329 327 325 324 326 329 333 338 341 340 333 328 333 333 322 319 319 310 302 305 317 280 139 23 25 214 181 184 143 128 109 149 136 132 136 127 76 203 212 197 197 164
356 349 342 337 333 328 326 322 321 322 325 331 335 341 339 334 333 336 340 334 319 310 299 307 289 298 207 164 328 330 179 175 123 146 151 152 101 151 131 187 199 196 216 214 222 191 198
4 356 347 340 333 328 327 323 321 322 325 329 331 338 340 334 343 9 25 10 352 322 305 265 282 273 281 290 318 150 175 189 157 165 160 119 197 201 181 196 158 205 227 240 239 195 202
13 5 357 350 340 332 327 325 324 322 324 326 327 335 339 339 15 74 48 46 12 322 314 328 307 275 273 255 302 194 170 161 171 184 136 173 236 213 158 184 168 176 204 244 263 188 202
19 15 9 4 357 349 338 330 328 328 327 328 328 337 342 357 62 97 29 6 344 326 264 305 328 336 348 180 203 229 177 171 162 176 187 229 234 143 164 167 185 204 212 224 240 145 196
21 20 20 14 7 2 355 349 347 346 342 338 341 346 351 34 117 99 10 347 340 337 324 10 10 43 19 92 187 261 193 174 163 222 180 255 235 217 215 215 207 228 218 226 214 204 233
22 20 18 18 16 10 9 11 12 9 4 2 1 4 23 142 114 53 350 342 335 337 62 336 7 349 353 353 323 24 196 213 202 179 186 228 201 193 218 236 196 237 182 217 219 224 239
21 20 17 17 17 15 15 17 22 26 26 30 38 46 64 99 112 9 345 339 320 262 49 5 342 352 31 22 26 354 3 284 101 179 231 261 216 232 257 229 194 194 197 116 122 233 243
23 21 20 18 18 20 22 24 33 44 53 54 53 57 65 72 55 355 337 326 27 44 336 353 345 358 43 9 17 12 1 32 358 296 253 273 259 260 226 254 218 210 209 257 238 214 253
25 24 23 21 21 22 28 36 48 67 70 68 65 66 64 62 18 351 354 67 59 341 357 330 335 39 52 14 11 0 8 23 43 5 308 314 306 1 8 245 298 211 220 239 263 263 268
24 23 24 25 24 23 27 36 52 73 81 81 72 66 53 32 10 22 77 55 28 333 319 321 311 26 12 12 343 353 31 10 16 9 344 309 278 314 292 299 272 169 226 301 266 254 268
22 22 23 26 26 26 26 29 40 56 66 93 71 48 28 19 32 61 70 95 76 3 317 2 32 24 10 3 5 359 18 15 354 5 344 303 281 279 286 290 159 257 48 242 211 263 260
20 20 20 23 27 26 28 25 26 33 59 98 75 58 14 24 58 60 69 63 49 14 26 23 10 353 358 350 325 342 347 74 17 360 20 345 284 272 287 261 289 247 238 162 16 254 276
16 17 18 19 24 26 23 23 23 33 102 79 64 56 9 39 49 37 51 25 31 4 14 17 32 348 3 347 319 339 5 13 28 5 358 29 296 280 276 235 246 217 259 244 246 232 222
13 15 16 16 20 26 26 24 25 41 118 95 82 53 30 57 80 69 45 49 53 19 24 14 15 5 356 348 325 353 348 332 355 357 344 346 328 315 276 205 195 238 110 264 256 209 229
11 12 14 15 16 21 26 26 26 43 91 130 113 84 39 59 65 70 85 26 11 18 54 11 27 30 354 334 7 313 320 313 331 332 360 276 266 236 264 310 349 302 1 356 273 220 251
11 11 13 14 16 18 22 27 27 28 69 73 66 80 60 27 36 63 70 37 1 7 17 20 41 12 348 300 318 289 317 325 310 352 345 309 277 280 267 241 283 303 342 9 336 326 268
11 12 13 14 16 18 20 24 31 36 45 98 98 125 87 71 49 53 24 41 12 338 315 30 2 332 319 271 308 307 315 310 309 330 325 349 274 321 287 280 210 213 257 310 333 346 307
13 12 13 15 17 19 21 25 30 37 48 78 85 103 105 20 53 65 41 360 1 340 265 311 329 315 308 315 313 302 282 265 267 297 322 328 328 317 288 324 279 235 2 72 92 60 304
14 12 11 13 15 18 21 26 31 38 40 57 71 82 89 79 72 98 92 22 332 330 275 313 340 320 322 314 335 54 68 120 164 242 306 326 319 245 290 323 246 75 53 60 87 45 22
11 11 9 8 11 15 19 22 29 37 43 43 48 59 87 107 119 211 151 8 331 309 248 278 345 317 325 333 1 339 308 321 328 347 5 345 312 302 323 327 75 45 358 336 3 46 3
10 9 8 5 5 8 13 17 21 27 36 40 45 49 90 127 200 192 153 9 11 351 329 297 349 352 5 12 42 26 6 337 327 331 350 357 9 13 345 351 7 318 291 254 327 94 19
10 9 8 6 1 1 4 8 10 18 25 28 31 30 43 106 178 169 180 155 128 95 276 300 331 346 15 13 40 24 352 320 327 319 340 339 358 12 2 4 47 345 329 295 250 112 144
8 8 6 4 2 356 354 357 360 358 6 14 16 26 21 248 206 213 207 181 177 179 341 326 261 27 4 30 3 18 286 349 293 297 323 324 336 347 317 328 346 354 356 24 20 162 208
5 5 5 1 358 355 348 344 346 347 341 334 341 337 355 243 242 238 243 241 241 251 254 261 241 231 208 90 205 220 232 229 283 315 224 288 311 301 264 302 334 326 37 45 152 173 233